Date String (YYYY-MM-DD hh:mm:ss) UTC,Instrument flags,Ambient pressure (hPa),Sample flow (lpm),Bypass flow (lpm),Sample temperature (°C),Ambient temperature (°C),ASC tube jacket temperature (°C),LED temperature (°C),Box temperature (°C),Sample RH (%),Span deviation,Mass concentration (μg/m³),Mass concentration (μg/m³),Mass concentration (μg/m³)
DateTimeUTC,F1_M11,P_M11,Q1_M11,Q2_M11,T1_M11,T2_M11,T3_M11,T4_M11,T5_M11,U1_M11,ZSPAN_M11,X0_M11,X2_M11,X1_M11
2023-05-19 06:00:00,,0835.7,5.00,0.00,29.2,27.5,00.0,37.5,30.7,25.9,0002.7,0011.15,0007.65,0007.26
2023-05-19 06:01:00,,0835.8,5.01,0.00,29.2,27.5,00.0,37.5,30.7,25.8,0002.7,0011.30,0007.75,0007.35
2023-05-19 06:02:00,,0835.6,5.00,0.00,29.2,27.4,00.0,37.5,30.7,25.7,0002.4,0011.34,0007.82,0007.42
2023-05-19 06:03:00,,0835.7,5.00,0.00,29.2,27.4,00.0,37.5,30.7,25.6,0002.5,0011.33,0007.82,0007.42
2023-05-19 06:04:00,,0835.8,5.00,0.00,29.2,27.4,00.0,37.5,30.7,25.5,0002.6,0011.37,0007.90,0007.50
2023-05-19 06:05:00,,0835.8,4.98,0.00,29.2,27.4,00.0,37.5,30.7,26.0,0002.7,0011.53,0008.00,0007.59
2023-05-19 06:06:00,,0835.8,5.01,0.00,29.2,27.4,00.0,37.5,30.7,25.9,0002.4,0011.63,0008.07,0007.65
2023-05-19 06:07:00,,0835.8,5.00,0.00,29.2,27.4,00.0,37.5,30.7,25.4,0002.2,0011.85,0008.26,0007.83
2023-05-19 06:08:00,,0835.8,4.99,0.00,29.1,27.4,00.0,37.5,30.7,25.6,0002.0,0012.23,0008.45,0007.98
2023-05-19 06:09:00,,0835.8,5.00,0.00,29.1,27.4,00.0,37.5,30.7,25.8,0002.1,0012.43,0008.49,0008.01
2023-05-19 06:10:00,,0835.8,5.00,0.00,29.1,27.4,00.0,37.5,30.7,25.8,0002.7,0012.61,0008.60,0008.08
2023-05-19 06:11:00,,0835.8,5.00,0.00,29.1,27.4,00.0,37.5,30.7,26.2,0002.7,0012.69,0008.66,0008.12
2023-05-19 06:12:00,,0835.8,5.01,0.00,29.2,27.4,00.0,37.5,30.7,26.5,0002.6,0012.58,0008.57,0008.04
2023-05-19 06:13:00,,0835.9,5.00,0.00,29.2,27.4,00.0,37.5,30.7,26.5,0002.8,0012.51,0008.49,0007.94
2023-05-19 06:14:00,,0835.9,5.01,0.00,29.1,27.4,00.0,37.5,30.7,26.6,0003.0,0012.51,0008.40,0007.86
2023-05-19 06:15:00,,0835.8,5.00,0.00,29.1,27.4,00.0,37.5,30.7,26.6,0002.8,0012.48,0008.29,0007.72
2023-05-19 06:16:00,,0835.8,5.00,0.00,29.1,27.4,00.0,37.5,30.7,26.4,0002.6,0012.40,0008.21,0007.62
2023-05-19 06:17:00,,0835.8,4.99,0.00,29.1,27.4,00.0,37.5,30.7,25.5,0002.5,0012.48,0008.31,0007.73
2023-05-19 06:18:00,,0835.8,5.00,0.00,29.2,27.4,00.0,37.5,30.7,25.5,0002.7,0012.54,0008.35,0007.79
2023-05-19 06:19:00,,0835.8,5.00,0.00,29.1,27.4,00.0,37.5,30.7,25.7,0002.7,0012.15,0008.20,0007.67
2023-05-19 06:20:00,,0835.8,5.01,0.00,29.1,27.4,00.0,37.5,30.7,26.1,0002.8,0011.89,0008.11,0007.60
2023-05-19 06:21:00,,0835.8,5.00,0.00,29.1,27.4,00.0,37.5,30.7,26.1,0002.5,0011.66,0007.97,0007.49
2023-05-19 06:22:00,,0835.8,5.00,0.00,29.1,27.4,00.0,37.5,30.7,26.1,0002.7,0011.52,0007.88,0007.42
2023-05-19 06:23:00,,0835.8,4.99,0.00,29.1,27.4,00.0,37.5,30.7,26.3,0003.0,0011.55,0007.90,0007.43
2023-05-19 06:24:00,,0835.8,5.01,0.00,29.1,27.4,00.0,37.5,30.7,26.3,0003.2,0011.50,0007.91,0007.47
2023-05-19 06:25:00,,0835.8,5.01,0.00,29.1,27.4,00.0,37.5,30.7,26.2,0002.9,0011.37,0007.92,0007.48
2023-05-19 06:26:00,,0835.8,4.98,0.00,29.1,27.4,00.0,37.5,30.7,26.3,0002.8,0011.29,0007.92,0007.50
2023-05-19 06:27:00,,0835.8,5.00,0.00,29.1,27.4,00.0,37.5,30.7,26.3,0002.8,0011.25,0007.90,0007.50
2023-05-19 06:28:00,,0835.8,5.01,0.00,29.1,27.4,00.0,37.5,30.7,26.4,0002.7,0011.01,0007.68,0007.30
2023-05-19 06:29:00,,0835.8,5.01,0.00,29.1,27.4,00.0,37.5,30.7,26.5,0002.8,0010.66,0007.41,0007.04
2023-05-19 06:30:00,,0835.8,5.00,0.00,29.1,27.4,00.0,37.5,30.7,26.5,0002.8,0010.53,0007.29,0006.93
2023-05-19 06:31:00,,0835.8,4.99,0.00,29.1,27.4,00.0,37.5,30.7,25.8,0002.8,0010.78,0007.52,0007.14
2023-05-19 06:32:00,,0835.8,5.02,0.00,29.1,27.4,00.0,37.5,30.7,25.2,0002.8,0011.45,0008.07,0007.69
2023-05-19 06:33:00,,0835.9,5.01,0.00,29.1,27.3,00.0,37.5,30.6,25.5,0002.7,0011.77,0008.36,0007.98
2023-05-19 06:34:00,,0835.8,5.00,0.00,29.1,27.3,00.0,37.5,30.6,25.8,0002.6,0011.88,0008.49,0008.12
2023-05-19 06:35:00,,0835.8,4.98,0.00,29.1,27.3,00.0,37.4,30.6,25.8,0002.9,0012.13,0008.69,0008.28
2023-05-19 06:36:00,,0835.8,5.00,0.00,29.1,27.3,00.0,37.4,30.6,25.7,0003.0,0012.44,0008.95,0008.54
2023-05-19 06:37:00,,0835.8,5.00,0.00,29.1,27.3,00.0,37.4,30.6,25.9,0003.1,0012.69,0009.19,0008.78
2023-05-19 06:38:00,,0835.8,5.00,0.00,29.1,27.3,00.0,37.4,30.6,26.2,0002.9,0012.91,0009.36,0008.95
2023-05-19 06:39:00,,0835.9,5.00,0.00,29.1,27.3,00.0,37.4,30.6,26.3,0002.6,0013.10,0009.50,0009.07
2023-05-19 06:40:00,,0835.9,5.01,0.00,29.1,27.3,00.0,37.4,30.6,26.3,0002.4,0013.39,0009.64,0009.19
2023-05-19 06:41:00,,0835.9,4.98,0.00,29.1,27.3,00.0,37.4,30.6,26.3,0002.4,0013.60,0009.77,0009.29
2023-05-19 06:42:00,,0835.9,5.00,0.00,29.0,27.3,00.0,37.4,30.6,26.2,0002.1,0013.47,0009.62,0009.14
2023-05-19 06:43:00,,0835.9,5.00,0.00,29.0,27.3,00.0,37.4,30.6,26.2,0002.0,0012.82,0009.10,0008.63
2023-05-19 06:44:00,,0835.9,5.00,0.00,29.0,27.3,00.0,37.4,30.6,26.3,0002.1,0012.53,0008.82,0008.34
2023-05-19 06:45:00,,0835.9,4.98,0.00,29.0,27.3,00.0,37.4,30.6,26.3,0002.2,0012.37,0008.67,0008.18
2023-05-19 06:46:00,,0835.9,5.01,0.00,29.0,27.3,00.0,37.4,30.6,26.3,0001.7,0012.25,0008.49,0007.99
2023-05-19 06:47:00,,0835.9,5.01,0.00,29.0,27.3,00.0,37.4,30.6,26.5,0001.6,0011.89,0008.16,0007.68
2023-05-19 06:48:00,,0835.9,5.01,0.00,29.0,27.3,00.0,37.4,30.6,26.5,0001.7,0011.62,0007.90,0007.41
2023-05-19 06:49:00,,0835.9,4.98,0.00,29.0,27.3,00.0,37.4,30.5,26.5,0002.3,0011.37,0007.71,0007.23
2023-05-19 06:50:00,,0835.9,5.00,0.00,29.0,27.2,00.0,37.4,30.5,26.5,0003.0,0011.18,0007.57,0007.09
2023-05-19 06:51:00,,0835.9,5.00,0.00,29.0,27.2,00.0,37.4,30.5,26.5,0003.2,0010.91,0007.41,0006.95
2023-05-19 06:52:00,,0835.9,5.01,0.00,29.0,27.2,00.0,37.4,30.5,26.4,0003.1,0010.69,0007.29,0006.85
2023-05-19 06:53:00,,0835.9,5.00,0.00,29.0,27.2,00.0,37.4,30.5,26.5,0003.4,0010.56,0007.20,0006.75
2023-05-19 06:54:00,,0835.9,5.00,0.00,29.0,27.2,00.0,37.4,30.5,26.9,0003.5,0010.37,0007.04,0006.60
2023-05-19 06:55:00,,0835.9,5.00,0.00,29.0,27.2,00.0,37.4,30.5,27.2,0003.4,0010.69,0006.89,0006.47
2023-05-19 06:56:00,,0835.9,4.99,0.00,29.0,27.1,00.0,37.4,30.5,27.0,0003.4,0010.90,0007.06,0006.64
2023-05-19 06:57:00,,0835.9,5.01,0.00,29.0,27.1,00.0,37.4,30.5,26.9,0003.2,0011.54,0007.62,0007.19
2023-05-19 06:58:00,,0835.9,5.01,0.00,28.9,27.1,00.0,37.3,30.5,26.8,0002.8,0013.01,0008.78,0008.30
2023-05-19 06:59:00,,0835.9,5.01,0.00,28.9,27.1,00.0,37.3,30.5,26.6,0002.3,0014.74,0010.14,0009.60
